Ft Lauderdale, FL

1:59 PM EDT on July 27, 2017 (GMT -0400)
Fort Lauderdale-Hollywood International

Weather History for KFLL - November, 2012

Change the Weather History Date:

Thursday, November 29, 2012

  Actual Average Record
Temperature  
Mean Temperature 71 °F 74 °F  
Max Temperature 79 °F 80 °F 90 °F (1958)
Min Temperature 62 °F 67 °F 35 °F (1950)
Degree Days  
Heating Degree Days 0 0  
Month to date heating degree days 2 0  
Since 1 July heating degree days 2 0  
Cooling Degree Days 6 9  
Month to date cooling degree days 189 310  
Year to date cooling degree days 4346 4504  
Growing Degree Days 20 (Base 50)    
Moisture  
Dew Point 62 °F    
Average Humidity 76    
Maximum Humidity 93    
Minimum Humidity 58    
Precipitation  
Precipitation T in 0.11 in 1.16 in (1995)
Month to date precipitation 0.51 3.14  
Year to date precipitation 59.80 59.62  
Snow  
Snow 0.00 in - - ()
Month to date snowfall 0.0  
Since 1 July snowfall 0.0  
Since 1 September snowfall 0.0  
Snow Depth 0.00 in    
Sea Level Pressure  
Sea Level Pressure 30.17 in    
Wind  
Wind Speed 13 mph (NE)    
Max Wind Speed 23 mph    
Max Gust Speed 28 mph    
Visibility 10 miles    
Events Rain    
T = Trace of Precipitation, MM = Missing Value Source: NWS Daily Summary

Daily Weather History Graph

Daily Weather History Graph

Search for Another Location

Airport or City:

Trip Planner

Search our weather history database for the weather conditions in past years. The results will help you decide how hot, cold, wet, or windy it might be!

Date:

Astronomy

Nov. 29, 2012 Rise Set
Actual Time 6:49 AM EST 5:28 PM EST
Civil Twilight 6:24 AM EST 5:53 PM EST
Nautical Twilight 5:56 AM EST 6:21 PM EST
Astronomical Twilight 5:28 AM EST 6:49 PM EST
Moon 6:30 PM EST (11/29) 7:34 AM EST (11/29)
Length of Visible Light 11h 28m
Length of Day
10h 38m
Full, 99% of the Moon is Illuminated
Nov 29
Full
Dec 6
Last Quarter
Dec 13
New
Dec 20
First Quarter
Dec 28
Full

Hourly Weather History & Observations

Time (EST) Temp. Dew Point Humidity Pressure Visibility Wind Dir Wind Speed Gust Speed Precip Events Conditions
12:53 AM 66.0 °F 63.0 °F 90% 30.15 in 10.0 mi NW 5.8 mph - N/A   Mostly Cloudy
1:53 AM 64.9 °F 62.1 °F 90% 30.14 in 10.0 mi WNW 3.5 mph - N/A   Mostly Cloudy
2:53 AM 64.0 °F 62.1 °F 93% 30.15 in 9.0 mi WNW 4.6 mph - N/A   Scattered Clouds
3:53 AM 63.0 °F 61.0 °F 93% 30.15 in 7.0 mi NW 6.9 mph - N/A   Partly Cloudy
4:53 AM 62.1 °F 60.1 °F 93% 30.15 in 8.0 mi NNW 4.6 mph - N/A   Mostly Cloudy
5:53 AM 63.0 °F 61.0 °F 93% 30.16 in 8.0 mi NW 3.5 mph - N/A   Mostly Cloudy
6:53 AM 66.0 °F 63.0 °F 90% 30.17 in 9.0 mi North 5.8 mph - 0.00 in Rain Light Rain
7:53 AM 73.9 °F 62.1 °F 66% 30.18 in 10.0 mi ENE 17.3 mph 24.2 mph 0.00 in   Mostly Cloudy
8:53 AM 75.9 °F 62.1 °F 62% 30.20 in 10.0 mi ENE 17.3 mph 24.2 mph N/A   Mostly Cloudy
9:53 AM 75.9 °F 62.1 °F 62% 30.20 in 10.0 mi ENE 16.1 mph 24.2 mph N/A   Mostly Cloudy
10:53 AM 78.1 °F 63.0 °F 60% 30.20 in 10.0 mi ENE 15.0 mph 25.3 mph N/A   Scattered Clouds
11:53 AM 75.9 °F 63.0 °F 64% 30.19 in 10.0 mi ENE 18.4 mph 24.2 mph N/A   Mostly Cloudy
12:53 PM 77.0 °F 63.0 °F 62% 30.18 in 10.0 mi ENE 18.4 mph 24.2 mph N/A   Scattered Clouds
1:53 PM 75.9 °F 63.0 °F 64% 30.16 in 10.0 mi ENE 17.3 mph 23.0 mph N/A   Mostly Cloudy
2:53 PM 75.9 °F 62.1 °F 62% 30.15 in 10.0 mi ENE 15.0 mph 27.6 mph N/A   Mostly Cloudy
3:53 PM 75.9 °F 62.1 °F 62% 30.15 in 10.0 mi ENE 16.1 mph - N/A   Mostly Cloudy
4:53 PM 75.0 °F 63.0 °F 66% 30.15 in 10.0 mi ENE 17.3 mph 23.0 mph N/A   Mostly Cloudy
5:53 PM 73.9 °F 62.1 °F 66% 30.16 in 10.0 mi ENE 17.3 mph 25.3 mph N/A   Mostly Cloudy
6:53 PM 73.9 °F 62.1 °F 66% 30.17 in 10.0 mi ENE 15.0 mph 21.9 mph N/A   Mostly Cloudy
7:53 PM 73.9 °F 62.1 °F 66% 30.18 in 10.0 mi ENE 16.1 mph 23.0 mph N/A   Scattered Clouds
8:53 PM 73.9 °F 62.1 °F 66% 30.18 in 10.0 mi ENE 16.1 mph 23.0 mph N/A   Scattered Clouds
9:53 PM 73.0 °F 62.1 °F 68% 30.18 in 10.0 mi East 15.0 mph 24.2 mph N/A   Scattered Clouds
10:53 PM 73.0 °F 61.0 °F 66% 30.19 in 10.0 mi East 17.3 mph - N/A   Mostly Cloudy
11:53 PM 73.0 °F 60.1 °F 64% 30.17 in 10.0 mi East 16.1 mph 24.2 mph N/A   Scattered Clouds